| time (UTC) | temp C | wind direction | speed KPH | gust KPH | rain 1hr cm | rain 24hr cm | rain mn cm | humidity % | barometer mb |
| 20260506003005 | 14 | 226 | 3.2 | 11.3 | 0.00 | 0.00 | 0.00 | 79 | 1007.5 |
| 20260506001530 | 14 | 229 | 4.8 | 14.5 | 0.00 | 0.00 | 0.00 | 78 | 1007.5 |
| 20260506000046 | 14 | 249 | 1.6 | 6.4 | 0.00 | 0.00 | 0.00 | 78 | 1007.6 |
| 20260505234637 | 14 | 154 | 0.0 | 11.3 | 0.00 | 0.00 | 0.00 | 77 | 1007.7 |
| 20260505233004 | 14 | 248 | 6.4 | 20.9 | 0.00 | 0.00 | 0.00 | 78 | 1006.1 |
| 20260505231509 | 14 | 238 | 9.7 | 20.9 | 0.00 | 0.00 | 0.00 | 78 | 1005.5 |
| 20260505230036 | 13 | 250 | 14.5 | 32.2 | 0.00 | 0.00 | 0.00 | 79 | 1005.1 |
| 20260505224546 | 13 | 165 | 9.7 | 27.4 | 0.00 | 0.00 | 0.00 | 81 | 1005.0 |
| 20260505223049 | 13 | 214 | 6.4 | 14.5 | 0.00 | 0.00 | 0.00 | 81 | 1004.8 |
| 20260505221512 | 13 | 211 | 8.0 | 20.9 | 0.00 | 0.00 | 0.00 | 80 | 1004.8 |
| 20260505220033 | 14 | 213 | 9.7 | 22.5 | 0.00 | 0.00 | 0.00 | 78 | 1004.8 |
| 20260505214536 | 15 | 230 | 8.0 | 22.5 | 0.00 | 0.00 | 0.00 | 75 | 1004.9 |
| 20260505213041 | 16 | 216 | 9.7 | 24.1 | 0.00 | 0.00 | 0.00 | 72 | 1004.9 |
| 20260505211559 | 16 | 218 | 12.9 | 30.6 | 0.00 | 0.00 | 0.00 | 73 | 1004.9 |
| 20260505210056 | 16 | 260 | 9.7 | 24.1 | 0.00 | 0.00 | 0.00 | 72 | 1004.7 |
| 20260505204609 | 17 | 175 | 8.0 | 17.7 | 0.00 | 0.00 | 0.00 | 72 | 1004.7 |
| 20260505203009 | 16 | 226 | 9.7 | 22.5 | 0.00 | 0.00 | 0.00 | 73 | 1004.8 |
| 20260505200018 | 17 | 143 | 9.7 | 17.7 | 0.00 | 0.00 | 0.00 | 72 | 1005.2 |
| 20260505194534 | 17 | 186 | 9.7 | 16.1 | 0.00 | 0.00 | 0.00 | 73 | 1005.5 |
| 20260505193039 | 17 | 231 | 8.0 | 19.3 | 0.00 | 0.00 | 0.00 | 73 | 1005.7 |
| 20260505191555 | 17 | 172 | 8.0 | 22.5 | 0.00 | 0.00 | 0.00 | 73 | 1005.7 |
| 20260505190047 | 17 | 191 | 4.8 | 11.3 | 0.00 | 0.00 | 0.00 | 73 | 1006.0 |
| 20260505184611 | 16 | 200 | 8.0 | 17.7 | 0.00 | 0.00 | 0.00 | 75 | 1006.0 |
| 20260505183027 | 15 | 167 | 11.3 | 19.3 | 0.00 | 0.00 | 0.00 | 76 | 1005.9 |
| 20260505181537 | 15 | 236 | 11.3 | 22.5 | 0.00 | 0.00 | 0.00 | 77 | 1006.0 |
| 20260505180054 | 15 | 215 | 14.5 | 22.5 | 0.00 | 0.00 | 0.00 | 75 | 1006.4 |
| 20260505174503 | 16 | 231 | 9.7 | 19.3 | 0.00 | 0.00 | 0.00 | 75 | 1006.8 |
| 20260505173008 | 16 | 274 | 9.7 | 19.3 | 0.00 | 0.00 | 0.00 | 76 | 1006.5 |
| 20260505171517 | 15 | 207 | 6.4 | 20.9 | 0.00 | 0.00 | 0.00 | 77 | 1006.8 |
| 20260505170026 | 15 | 225 | 9.7 | 19.3 | 0.00 | 0.00 | 0.00 | 78 | 1007.1 |
| 20260505164542 | 14 | 167 | 14.5 | 20.9 | 0.00 | 0.00 | 0.00 | 78 | 1007.4 |
| 20260505163040 | 15 | 252 | 9.7 | 22.5 | 0.00 | 0.00 | 0.00 | 79 | 1007.5 |
| 20260505161555 | 15 | 175 | 11.3 | 19.3 | 0.00 | 0.00 | 0.00 | 76 | 1007.5 |
| 20260505153051 | 12 | 156 | 8.0 | 22.5 | 0.00 | 0.00 | 0.00 | 83 | 1008.2 |
| 20260505151550 | 12 | 155 | 6.4 | 20.9 | 0.00 | 0.00 | 0.00 | 83 | 1007.9 |
| 20260505124541 | 12 | 223 | 3.2 | 11.3 | 0.00 | 0.00 | 0.00 | 83 | 1008.2 |
| 20260505123059 | 12 | 198 | 6.4 | 14.5 | 0.00 | 0.00 | 0.00 | 83 | 1008.2 |
| 20260505121549 | 11 | 189 | 8.0 | 11.3 | 0.00 | 0.00 | 0.00 | 84 | 1008.2 |
| 20260505120058 | 11 | 217 | 4.8 | 9.7 | 0.00 | 0.00 | 0.00 | 85 | 1008.2 |
| 20260505114614 | 11 | 210 | 0.0 | 9.7 | 0.00 | 0.00 | 0.00 | 86 | 1008.4 |
| 20260505113002 | 10 | 225 | 4.8 | 11.3 | 0.00 | 0.00 | 0.00 | 86 | 1008.5 |
| 20260505111511 | 10 | 230 | 3.2 | 11.3 | 0.00 | 0.00 | 0.00 | 88 | 1008.4 |